Theta_e
301 309 308 305 306 305 304 304 303 302 301 303 304 304 303 302 301 299 301 300 297 299 302 301 300 299 298 298 295 293 296 295 294 294 293 292 292 292 291 289 287 287 286 285 285 285 285 286 287 288 288 288 287 287 286 286 286 286 286 285 284 284 283 282 281 281 280 280 280 280 280 280 279 279 279 279 278 278 278 277 277 277 277 278 279 280
304 308 304 302 302 301 302 303 302 302 303 304 304 303 301 300 300 299 299 299 296 298 301 301 299 298 297 297 293 291 295 294 292 293 292 291 291 291 290 288 287 286 285 285 285 285 286 287 288 288 288 287 287 286 286 286 285 285 285 284 283 282 281 281 280 280 280 280 279 279 279 279 279 279 278 278 278 277 277 277 276 276 277 278 279 280
311 306 301 299 297 298 302 302 301 302 303 303 302 302 301 300 299 300 301 301 297 297 299 299 298 297 297 295 292 290 292 291 291 292 292 291 291 290 289 287 286 285 285 285 285 286 287 288 288 288 287 287 286 286 285 285 285 285 284 283 282 281 281 280 280 280 280 279 279 279 279 279 278 278 278 277 277 277 276 276 276 275 276 277 278 278
311 304 300 297 295 302 305 301 301 302 302 302 301 300 302 300 298 300 301 300 298 297 298 298 298 298 297 296 293 291 290 289 290 291 291 291 290 288 287 286 285 285 285 286 287 287 288 288 287 287 287 286 285 285 285 285 284 284 283 282 281 280 280 280 280 280 279 279 279 279 278 278 278 278 277 277 276 276 276 275 275 275 275 276 277 277
307 301 298 296 298 303 302 301 302 302 302 302 300 301 301 300 298 298 299 298 298 297 297 297 299 299 298 299 296 291 289 288 288 289 288 288 288 286 286 285 285 286 287 287 287 288 287 287 287 286 286 285 285 285 284 284 284 284 283 282 280 280 280 280 279 279 279 279 278 278 278 278 277 277 277 276 276 276 275 275 275 275 275 276 277 277
306 299 297 299 301 302 302 302 300 299 301 302 302 301 299 299 298 297 297 297 298 299 296 296 300 300 298 299 296 291 288 287 286 286 286 286 286 285 285 286 286 287 287 287 287 287 287 287 286 286 286 285 285 284 284 284 284 283 282 281 280 280 280 279 279 279 278 278 278 278 277 277 277 276 276 276 275 275 275 275 274 275 275 276 276 276
302 298 298 301 302 304 305 302 298 298 301 302 301 299 297 298 298 298 297 297 299 300 297 296 298 300 298 297 295 291 288 286 286 285 285 285 285 285 286 286 287 287 287 287 287 287 286 286 286 285 285 285 285 284 284 284 283 283 282 280 280 279 279 279 279 278 278 278 277 277 277 277 276 276 276 275 275 275 274 274 274 274 274 275 275 275
301 302 302 303 304 306 305 301 298 298 300 302 300 297 298 298 298 298 297 297 298 297 296 296 297 298 299 298 295 293 289 286 286 285 285 285 285 286 286 287 287 287 287 287 286 286 286 286 286 285 285 285 285 284 284 284 283 283 282 280 279 279 279 279 278 278 278 277 277 277 276 276 276 276 275 275 275 274 274 274 274 273 274 274 274 274
300 303 302 303 305 305 302 300 298 298 299 302 300 297 298 298 297 297 297 297 296 296 298 297 295 298 300 298 296 295 293 288 286 286 285 285 285 286 286 287 287 287 287 287 286 286 286 286 286 285 285 285 284 284 284 283 283 283 281 279 279 279 279 278 278 278 277 277 277 277 276 276 276 276 275 275 275 274 274 273 273 273 273 274 274 275
298 300 299 300 303 303 302 301 299 298 299 300 298 297 298 297 297 296 297 298 297 298 301 298 295 297 298 297 295 295 294 290 287 286 286 285 285 286 287 287 287 287 287 286 286 286 286 286 285 285 285 285 284 284 284 283 283 282 281 279 279 279 279 278 278 278 277 277 277 276 276 276 276 275 275 275 274 274 274 273 273 273 273 273 274 274
297 298 298 299 301 300 301 300 297 296 296 297 298 298 298 298 299 298 298 300 300 301 302 299 297 296 297 295 292 290 291 290 288 286 286 286 286 287 287 287 287 287 286 286 286 286 286 285 285 285 284 284 284 284 283 283 283 282 280 279 279 279 278 278 278 278 277 277 277 276 276 276 275 275 275 274 274 273 273 273 272 272 272 273 273 273
300 301 300 298 299 297 299 300 297 295 294 296 298 298 298 298 299 301 302 302 302 300 298 298 297 296 297 295 289 287 287 288 287 286 285 286 286 287 287 286 287 286 286 286 286 285 285 285 285 284 284 283 283 283 283 283 282 281 279 279 279 278 278 278 278 278 277 277 277 276 276 276 275 275 275 274 274 273 273 272 272 272 272 272 272 273
304 302 297 297 298 297 298 300 299 298 297 297 298 298 298 298 298 299 300 300 301 300 297 297 296 296 297 294 287 285 286 286 286 286 286 286 286 287 287 286 286 286 286 286 285 285 285 284 284 283 283 283 283 283 283 282 281 280 279 279 279 278 278 278 278 278 277 277 277 276 276 276 275 275 274 274 273 273 272 272 272 271 272 272 272 272
306 304 299 299 299 296 297 298 299 300 299 298 298 298 298 297 297 298 297 297 300 299 298 296 295 296 297 292 287 285 285 286 286 287 287 286 286 287 286 286 286 286 286 285 285 284 284 283 283 282 282 282 282 282 282 281 280 280 279 279 278 278 278 278 278 277 277 277 276 276 276 275 275 274 274 273 273 272 272 271 271 271 271 271 271 272
304 306 302 300 298 298 298 297 297 298 298 297 297 298 299 297 296 297 298 298 297 297 297 297 297 298 297 292 287 285 285 287 288 288 287 287 287 287 286 286 286 285 285 284 284 283 283 282 282 281 281 280 281 281 281 280 280 279 279 278 278 278 277 277 277 277 277 276 276 275 275 274 274 274 273 273 272 271 271 270 270 271 271 271 272 272
301 304 301 298 297 298 299 297 296 297 298 297 296 298 299 297 296 297 297 297 296 295 297 299 299 297 293 289 286 286 286 288 289 288 287 287 287 286 286 286 285 284 284 283 283 282 282 281 280 280 280 280 280 280 280 280 279 279 278 278 278 277 277 277 277 276 276 275 275 274 274 274 273 273 272 272 271 270 270 270 271 271 271 272 272 272
301 304 302 298 297 297 297 296 295 296 299 298 297 298 297 295 296 298 296 296 296 296 296 298 298 295 293 289 287 287 288 289 289 288 287 287 286 286 285 285 284 283 283 282 282 281 281 280 279 279 279 279 279 279 279 279 279 279 278 277 277 277 277 277 276 276 275 274 274 274 273 273 272 272 271 270 270 270 270 271 271 271 271 271 271 271
299 303 302 298 300 298 294 295 295 294 296 299 298 297 295 294 296 297 296 295 295 296 296 296 295 295 295 293 289 288 289 288 288 288 287 286 286 285 284 284 283 283 282 282 281 280 280 279 278 278 278 278 278 278 278 279 279 278 277 277 277 276 276 276 275 275 274 274 273 273 272 272 271 270 270 269 269 270 270 271 271 270 270 270 271 271
297 302 302 297 298 298 294 296 298 296 295 296 296 295 295 296 297 296 295 295 295 295 295 295 295 295 295 293 291 289 288 287 287 287 286 286 285 284 283 283 282 282 281 281 280 280 279 278 277 277 277 277 277 277 277 278 278 277 276 276 276 276 275 275 274 274 273 273 272 272 271 271 270 269 269 269 269 270 270 270 270 270 270 270 270 270
297 301 303 298 296 297 298 298 299 298 296 295 296 297 296 296 295 294 294 294 295 295 294 295 295 294 293 292 291 289 287 287 287 286 285 285 284 283 283 282 281 281 281 280 279 278 277 276 276 276 276 276 276 277 277 276 276 275 275 275 275 275 274 273 273 273 272 272 271 271 270 269 269 269 269 269 270 270 270 269 269 270 270 270 270 270
297 299 302 300 297 298 301 298 296 297 297 297 298 298 296 296 295 293 293 294 295 294 293 293 293 293 292 290 290 289 287 287 286 285 285 284 283 283 282 281 280 280 280 279 278 277 276 275 275 275 276 276 276 275 275 275 275 275 275 275 274 273 272 272 271 271 271 270 270 270 269 268 268 268 269 269 269 269 269 269 269 269 269 269 270 270
298 299 299 300 299 300 300 297 294 296 296 297 297 295 294 294 293 294 293 293 294 293 292 291 291 293 291 290 289 288 287 286 286 285 284 284 283 282 280 279 280 280 279 278 276 275 275 274 275 275 275 275 275 274 274 274 274 274 273 273 272 272 271 270 270 270 269 269 269 268 268 268 268 268 268 268 268 269 269 269 269 269 269 269 269 269
296 298 298 299 299 299 298 293 291 292 295 297 295 293 294 293 293 295 294 293 292 291 291 291 291 292 290 289 289 288 287 286 285 285 284 283 282 281 279 278 280 280 278 277 275 274 274 274 275 275 275 274 273 273 274 273 272 272 271 271 270 270 270 269 269 269 268 268 268 268 268 268 267 267 267 268 268 268 268 268 268 268 268 268 268 268
295 297 298 300 299 298 296 293 290 291 294 297 294 291 291 291 292 293 292 291 290 290 291 290 291 292 290 289 289 288 287 286 285 284 283 282 281 279 278 279 280 279 277 275 274 274 274 275 275 274 273 273 273 272 272 271 271 270 270 269 269 269 268 268 268 267 267 267 268 268 268 267 267 267 267 268 268 268 268 268 268 268 268 267 267 267
296 298 299 300 300 299 298 296 294 294 295 296 294 290 289 289 289 290 289 288 289 290 291 290 291 291 291 291 290 288 287 286 284 283 282 282 280 279 278 279 279 277 276 274 274 274 274 274 274 273 272 272 271 271 270 270 270 269 268 268 268 267 267 267 267 267 267 267 267 267 267 266 266 267 267 267 267 267 267 267 267 266 266 267 267 267
296 298 300 302 301 300 300 299 298 297 295 295 293 290 289 289 288 289 290 289 290 290 290 290 290 290 290 290 289 287 286 285 283 283 282 281 280 278 278 279 278 276 275 274 273 274 274 273 273 272 271 270 270 270 270 269 269 268 267 267 266 266 266 266 266 267 267 267 266 266 266 266 266 266 266 266 266 266 266 266 265 265 266 266 266 266
296 297 299 302 301 299 299 298 297 297 295 294 294 291 289 289 287 288 290 290 290 290 289 290 290 290 290 289 287 286 285 283 282 282 282 280 279 278 278 278 276 275 274 273 273 273 273 272 272 271 270 269 269 269 268 268 267 266 266 265 265 265 265 266 266 266 266 266 265 265 265 265 265 265 265 265 265 265 265 265 265 265 266 266 266 266
298 298 298 299 299 298 298 296 295 295 293 293 293 290 288 289 288 288 289 289 289 289 290 290 289 289 289 287 286 285 284 283 282 282 281 280 279 278 277 276 275 274 273 273 272 272 272 272 271 270 269 269 268 268 267 266 265 265 265 264 265 265 265 266 266 266 265 265 265 265 265 264 264 264 264 264 264 264 264 264 265 265 266 266 266 266
297 299 296 294 296 296 294 294 293 292 292 292 291 289 288 289 288 288 289 289 288 288 289 289 289 288 288 286 285 284 283 282 282 281 281 280 278 278 276 275 274 274 273 272 272 272 272 271 270 269 268 268 267 266 266 265 264 264 264 264 264 265 265 265 265 264 264 264 264 264 264 264 264 264 263 263 263 263 264 264 265 265 266 266 266 267
294 300 296 293 294 293 293 293 292 291 292 291 290 288 288 288 288 288 289 288 287 288 288 288 288 287 286 285 285 284 283 282 281 281 280 279 278 277 275 274 274 273 272 272 272 272 271 270 269 268 268 267 266 266 265 264 264 264 264 264 264 264 264 264 264 264 264 264 263 263 263 263 263 263 262 262 262 263 263 264 264 265 266 266 267 268
293 297 295 292 294 294 294 294 293 292 293 291 289 288 287 288 288 288 287 287 287 288 288 288 287 286 286 285 284 283 282 281 281 280 279 278 277 276 274 274 273 272 272 272 272 271 269 269 269 268 267 266 265 265 264 264 263 263 263 263 263 264 264 263 263 263 263 263 263 262 262 262 262 262 262 262 262 262 263 263 264 265 266 267 267 268
294 295 294 293 295 297 295 294 293 291 290 289 289 288 288 288 288 288 288 288 288 288 288 286 285 284 285 284 284 283 282 281 281 280 278 277 276 274 274 273 272 272 272 271 271 269 268 268 268 267 266 265 265 264 264 263 263 263 263 263 263 263 263 263 262 262 262 262 262 262 261 261 261 261 261 262 262 262 263 264 265 266 267 267 268 269
292 295 295 293 296 299 295 292 291 290 291 293 292 289 288 288 288 288 288 288 288 287 286 285 284 284 284 283 283 282 281 281 280 279 277 276 275 274 273 272 272 272 271 270 269 268 267 267 266 266 265 265 265 264 263 263 262 262 262 263 263 263 262 262 261 261 261 261 261 260 260 260 260 261 261 262 262 263 264 265 266 267 267 268 269 269
292 294 294 291 295 299 294 290 292 296 298 297 291 288 287 287 288 288 288 288 287 286 285 284 284 284 284 283 282 281 281 281 279 278 276 275 274 273 272 272 272 271 270 269 267 266 266 266 266 265 265 264 264 263 263 262 262 262 262 262 262 262 261 261 261 261 260 260 259 260 260 260 260 261 262 262 263 264 265 266 267 267 268 269 270 270
296 295 292 290 293 296 293 292 298 303 300 292 287 287 287 287 287 287 287 288 286 284 284 284 284 284 283 282 282 281 281 280 278 277 275 274 274 272 272 271 271 271 270 268 266 266 265 266 265 264 264 264 263 263 262 261 261 261 262 262 262 261 261 261 260 260 259 259 259 260 260 260 261 261 262 263 264 265 266 267 268 268 269 270 271 271
296 296 293 291 293 295 294 294 299 300 294 287 286 288 287 287 288 288 288 289 287 284 284 284 284 283 282 282 281 281 280 279 277 276 275 274 273 272 271 271 270 270 269 267 266 265 265 265 265 264 264 263 262 262 261 261 261 261 261 261 261 261 260 260 259 259 258 259 259 260 260 261 261 262 263 264 265 266 267 268 269 269 270 271 272 273
292 295 294 293 294 294 294 294 295 296 293 289 289 289 287 287 288 287 288 288 285 284 284 283 283 282 282 281 281 280 279 277 276 276 275 274 273 272 271 271 270 269 267 266 265 265 264 264 264 263 263 262 261 260 260 260 261 261 260 260 260 260 259 259 258 258 258 259 259 260 261 261 261 262 263 264 266 267 268 269 270 271 271 272 273 274
288 291 294 295 294 293 294 294 294 298 298 294 291 289 287 287 287 286 286 286 284 284 284 283 282 282 281 281 280 279 278 276 275 275 275 273 272 271 270 270 269 268 266 265 265 264 263 264 263 263 262 261 260 260 260 260 260 260 260 260 259 259 258 258 258 258 258 259 259 260 261 262 262 263 264 265 266 268 269 270 271 272 272 272 274 275
287 289 293 296 295 293 294 295 296 299 299 294 290 288 287 287 286 285 286 287 286 284 284 283 282 281 281 280 279 278 276 275 274 274 274 273 272 271 270 269 268 266 265 265 264 263 263 263 262 262 261 260 260 259 259 260 260 259 259 258 258 258 258 257 257 257 258 259 260 261 262 262 263 263 264 266 267 268 269 271 272 272 273 273 274 276
294 293 293 295 296 294 293 294 295 296 296 292 288 288 288 287 286 287 290 291 287 284 284 283 281 281 281 280 278 277 275 274 274 274 273 272 271 270 269 268 266 265 264 264 263 262 262 262 261 261 260 260 259 259 259 260 259 258 258 257 257 257 257 257 257 258 259 259 260 261 262 263 263 264 265 266 268 269 270 271 272 273 273 274 276 277
297 295 292 292 294 293 293 294 294 295 295 291 288 288 288 287 287 289 291 289 285 284 284 282 281 281 280 279 277 276 275 274 274 273 272 271 270 269 268 267 266 264 264 263 262 262 262 261 261 260 260 259 259 259 259 259 258 257 257 257 257 257 257 257 257 258 259 260 261 262 263 264 264 265 266 267 269 270 271 271 272 273 274 275 276 277
297 296 293 292 294 293 292 292 294 296 293 289 288 288 288 289 291 290 289 287 285 284 283 282 281 280 279 278 277 275 274 273 273 272 271 270 269 268 267 266 265 264 263 263 262 261 261 261 260 260 259 259 259 258 258 258 257 257 257 256 257 257 256 257 258 259 259 260 261 262 263 264 265 266 267 268 269 270 271 272 273 273 274 275 276 276
296 297 297 295 294 293 292 293 298 299 293 287 288 289 288 289 290 288 286 285 284 283 282 281 281 280 278 277 275 274 273 273 272 271 270 269 269 268 267 266 264 263 263 262 261 261 260 260 259 259 259 259 258 258 258 257 257 256 256 256 256 256 256 257 258 259 260 261 262 263 264 265 266 267 268 268 269 270 271 272 273 274 274 275 276 276
293 296 299 297 293 293 297 299 300 299 293 288 289 290 288 288 288 285 284 284 283 283 282 281 280 279 278 275 273 273 273 272 272 271 270 269 268 267 266 265 264 263 262 262 261 260 260 259 259 259 259 258 258 257 257 257 256 256 256 256 256 256 256 257 258 259 260 261 262 263 264 265 266 267 268 268 269 270 271 272 273 274 275 275 275 276
296 295 297 297 294 294 297 299 297 294 292 290 290 289 288 287 286 285 285 284 283 282 281 280 279 278 276 274 273 273 273 272 271 270 269 268 267 266 266 265 264 263 262 261 261 260 259 259 259 259 260 259 257 257 257 256 256 256 256 256 256 256 256 258 259 260 261 261 262 263 264 266 267 268 268 268 269 270 271 272 273 274 275 275 275 275
292 291 292 293 293 292 292 293 292 291 292 291 290 289 288 287 286 286 285 284 283 282 281 279 278 277 275 274 273 273 273 271 270 269 268 267 267 266 265 265 264 263 262 261 260 260 259 259 259 259 260 259 257 257 256 256 256 256 256 256 256 256 257 258 259 260 261 262 263 263 265 266 267 268 268 268 269 270 271 272 272 273 274 275 275 274
289 289 290 291 292 292 293 292 290 290 291 290 289 288 287 286 286 286 285 284 282 281 280 278 277 276 274 274 273 273 272 271 270 269 268 267 266 266 265 265 264 263 262 261 260 259 259 259 259 259 259 258 257 257 256 256 256 256 256 256 256 256 257 258 259 260 261 262 263 264 265 266 267 268 269 269 269 270 271 271 272 272 273 273 274 274
292 289 291 291 291 292 293 292 290 290 291 290 289 288 287 286 286 286 284 283 282 281 279 277 276 275 274 274 273 272 272 271 270 269 268 267 266 265 265 264 263 263 262 261 260 260 259 259 259 259 259 258 257 257 256 256 256 256 256 257 257 257 257 258 259 260 261 262 262 263 265 265 266 267 268 269 270 270 270 271 272 272 272 272 272 273
291 291 292 292 291 291 291 291 290 290 291 289 288 288 287 286 286 285 283 282 281 280 278 276 276 275 274 274 273 271 271 271 270 269 268 267 266 265 265 264 263 262 262 261 260 260 260 260 260 260 259 259 258 257 257 256 256 256 257 257 257 257 258 258 259 260 261 262 262 263 264 265 266 266 268 269 270 270 270 269 270 272 272 272 272 272
291 293 291 291 293 294 294 292 291 291 291 290 288 288 286 286 286 284 283 282 281 279 277 276 276 276 275 274 273 271 271 271 270 269 269 268 266 265 264 264 263 263 262 261 260 260 260 260 260 260 260 259 258 258 257 256 256 256 257 257 257 257 258 258 259 260 261 262 262 263 264 265 266 266 267 268 269 271 271 270 269 270 271 272 273 273
293 294 292 294 297 297 294 293 291 290 290 289 288 287 286 286 285 284 282 281 280 278 277 276 276 276 275 274 273 272 271 271 270 269 269 268 267 266 265 264 263 263 263 262 261 260 260 260 260 260 260 259 258 258 258 257 256 257 257 257 257 258 258 258 259 260 261 262 262 262 263 264 265 266 267 267 268 270 271 272 271 271 271 271 273 274
Wind_Speed
7 5 5 3 4 5 4 3 4 3 3 3 4 3 5 7 8 8 11 7 2 3 5 6 10 12 13 12 9 14 10 4 5 5 9 15 21 23 23 23 24 21 16 12 8 6 6 11 15 19 23 25 28 30 31 30 29 28 27 26 24 22 20 20 21 23 24 26 28 30 31 33 34 36 37 38 39 38 38 36 35 34 31 28 26 27
5 6 4 4 5 3 3 2 4 2 1 2 3 5 5 5 9 10 10 7 4 2 6 5 12 13 10 8 9 15 10 8 11 4 8 13 18 19 22 24 22 18 14 11 8 7 11 17 20 22 24 27 30 31 31 30 29 27 25 23 21 19 18 19 20 22 24 25 27 29 31 32 33 35 35 37 38 37 36 35 33 31 28 25 26 29
6 4 5 4 2 2 4 3 3 1 1 2 2 3 6 4 8 9 6 2 3 4 9 9 12 12 7 4 7 13 9 10 15 6 5 12 17 17 21 23 20 18 14 10 8 11 16 20 22 24 26 29 31 31 31 30 27 25 23 21 19 17 18 19 21 23 25 26 28 29 30 31 33 34 35 36 36 36 35 34 33 31 28 26 28 30
4 2 4 2 2 3 3 4 3 3 2 2 3 3 6 5 5 6 5 5 4 5 8 9 10 7 4 3 5 13 13 14 18 13 7 10 16 17 20 20 18 16 12 10 11 16 20 22 24 26 28 30 31 30 29 28 26 24 22 19 17 17 18 20 22 24 25 27 28 29 30 32 33 35 35 36 37 36 37 36 36 34 31 28 28 28
1 3 2 2 3 2 3 5 4 4 5 4 4 3 6 7 4 7 11 12 10 3 2 7 9 4 2 3 3 9 14 18 20 20 19 17 18 20 21 19 16 13 11 13 17 21 23 24 27 28 29 29 29 28 27 27 25 23 21 18 16 17 19 21 23 24 25 26 28 29 31 33 33 34 35 35 36 37 38 38 38 35 30 28 28 27
1 3 2 2 3 4 4 4 3 3 5 6 5 4 5 9 9 12 13 12 9 3 3 7 6 4 1 4 4 5 9 13 17 20 21 21 22 21 20 16 13 15 18 19 22 25 27 28 29 29 29 29 29 28 27 27 25 23 20 17 17 19 20 22 23 23 24 25 26 28 30 31 32 33 34 34 36 38 38 37 36 34 30 28 28 29
1 2 2 3 3 5 6 3 1 2 5 6 3 2 4 8 11 14 13 7 4 4 3 4 1 4 4 4 4 4 7 9 12 14 17 21 22 18 16 13 15 20 23 23 25 28 30 31 31 31 30 29 30 30 28 27 26 24 20 18 18 20 21 22 22 22 22 23 25 26 27 28 29 31 34 36 38 39 38 37 36 35 33 31 32 33
2 6 5 5 5 5 6 4 2 1 4 5 3 2 8 12 13 13 10 4 2 4 5 2 2 3 4 2 2 2 7 9 9 9 12 17 16 13 13 16 20 22 24 26 28 31 32 33 33 33 32 31 31 31 29 29 28 25 20 18 19 21 22 22 21 21 21 22 24 25 25 26 29 32 36 39 40 39 39 39 39 39 37 35 33 31
2 5 6 5 5 5 3 3 3 2 1 6 6 6 10 12 11 9 7 5 2 3 4 3 2 3 5 2 1 1 4 7 7 6 8 11 10 10 15 21 24 24 27 29 32 34 34 33 33 33 33 32 32 32 31 30 29 25 20 19 21 22 23 22 21 21 21 23 24 25 26 28 31 34 36 39 39 38 38 39 41 40 37 34 29 25
2 2 2 1 3 2 3 6 5 3 3 9 9 8 9 7 3 3 4 4 1 3 2 5 3 3 7 4 2 2 3 3 4 4 5 7 7 10 19 25 27 29 31 32 33 34 34 34 33 33 34 34 34 34 33 31 30 25 19 20 22 23 24 23 22 22 23 24 25 26 27 30 33 35 37 38 38 38 38 40 41 39 36 33 30 27
4 1 1 2 2 2 4 7 5 4 3 10 8 8 7 2 2 2 2 2 3 2 3 4 2 2 7 3 2 3 3 1 3 4 6 9 12 16 21 26 29 31 33 34 35 35 35 34 33 34 35 36 36 36 34 34 30 23 20 21 23 24 24 24 23 23 24 25 26 27 29 32 35 37 38 39 39 40 41 42 43 40 36 33 31 29
6 2 1 1 1 2 2 4 3 2 2 7 5 6 8 4 2 3 3 4 3 4 3 3 1 2 7 3 3 4 4 4 5 5 6 10 15 20 23 27 30 32 33 34 35 36 36 36 36 38 39 39 39 38 38 37 27 21 20 23 24 25 25 26 25 25 26 27 28 29 32 35 38 39 40 40 41 42 43 44 44 40 35 32 29 28
4 1 3 2 0 4 3 3 4 2 5 7 5 7 9 7 6 5 5 4 2 5 3 4 7 5 4 1 3 4 4 6 7 8 8 11 17 22 26 29 31 32 33 35 36 37 37 38 40 42 42 41 40 40 40 34 22 18 23 26 26 27 28 28 28 28 28 29 30 33 35 37 39 40 41 41 42 44 44 45 43 38 34 32 31 29
4 3 5 2 0 4 5 5 5 4 5 7 5 5 6 5 5 6 6 6 6 9 8 8 6 3 2 1 3 4 4 6 9 12 14 15 17 22 27 29 31 33 35 36 37 37 37 38 39 39 38 38 37 37 34 25 19 24 29 29 29 30 30 29 29 28 28 29 31 33 35 37 38 39 40 42 43 43 44 44 40 37 33 31 30 28
4 5 4 3 3 5 6 5 1 1 2 2 1 3 4 2 1 4 5 6 9 12 11 7 0 2 5 3 3 5 5 4 8 15 18 19 21 25 28 30 33 35 35 37 38 37 37 36 36 36 36 36 35 34 30 24 26 31 31 30 30 30 30 31 29 28 27 28 29 31 32 34 36 38 41 43 43 43 42 40 35 32 29 26 25 24
2 5 5 2 3 2 4 2 1 2 1 2 2 4 3 1 2 3 5 5 8 10 9 3 1 3 1 2 3 4 2 3 10 17 21 23 28 30 32 34 35 36 38 39 37 35 35 36 37 38 38 36 36 35 33 31 31 32 31 31 31 30 33 33 28 25 25 26 27 28 31 34 36 39 42 44 45 43 38 33 28 26 24 23 22 22
2 5 6 5 3 2 5 4 2 3 1 1 3 3 4 1 4 1 5 5 6 9 6 1 3 4 1 2 0 1 2 7 12 16 21 26 30 31 32 34 36 38 39 36 33 34 36 37 39 39 38 38 39 39 38 35 33 32 32 31 31 33 33 30 24 23 24 25 27 30 33 37 40 42 42 43 42 38 31 26 23 22 23 23 23 23
0 5 7 4 2 1 4 4 4 5 3 3 4 5 3 1 4 2 4 5 6 8 6 4 8 8 4 2 2 1 6 9 10 13 19 25 28 30 32 35 37 36 33 32 33 35 35 36 39 40 39 40 40 42 41 38 33 30 29 31 34 34 29 23 20 21 24 26 31 36 40 44 45 43 41 39 35 30 25 22 21 22 23 23 23 22
1 4 6 1 2 6 4 5 3 5 5 5 1 3 2 3 3 3 2 4 6 8 9 10 11 7 2 3 2 3 6 9 10 12 16 21 26 30 33 35 36 32 30 32 31 31 34 38 41 40 40 40 40 42 40 34 30 30 33 35 32 25 19 18 20 23 28 33 39 44 47 49 46 41 36 32 27 24 21 20 22 23 23 22 23 23
1 1 4 3 4 6 4 3 1 4 4 4 2 3 3 1 2 0 1 1 2 5 9 13 12 5 1 2 4 4 6 9 11 12 15 20 28 32 33 35 35 32 30 30 28 31 38 42 42 41 40 39 38 37 35 33 36 37 34 27 20 16 19 23 27 32 37 41 46 50 50 47 39 32 29 25 22 21 20 20 22 22 21 22 22 23
1 1 3 5 4 4 3 1 1 2 2 4 3 4 5 1 2 2 1 2 2 3 7 10 11 6 1 1 2 3 5 8 13 16 17 24 33 34 34 38 38 32 30 30 32 39 45 45 44 42 38 35 36 38 38 37 36 29 21 18 19 24 31 36 40 43 46 49 51 50 44 35 28 25 25 23 22 22 21 20 21 20 21 21 20 20
1 1 2 5 5 3 3 2 3 4 2 3 2 2 3 2 2 4 4 1 3 1 4 5 9 8 3 1 2 0 5 11 21 25 22 27 33 31 37 43 36 29 30 33 38 46 49 48 44 39 33 33 38 38 33 27 23 20 22 29 34 39 43 46 48 50 52 51 47 40 31 24 23 25 25 23 22 21 20 19 19 18 19 20 21 21
1 2 1 5 5 5 4 1 1 2 5 5 3 2 2 1 4 3 3 4 1 3 4 5 9 7 0 3 3 2 11 21 29 31 27 28 28 30 42 43 29 25 31 36 45 53 51 45 38 33 32 34 34 28 23 26 29 32 38 42 44 47 49 51 53 53 50 43 35 28 22 21 24 26 25 23 21 20 19 19 19 21 22 24 26 27
1 2 1 5 5 3 2 2 1 2 5 5 3 3 3 2 2 5 4 3 3 4 3 5 9 6 0 2 7 13 21 26 28 30 30 28 26 35 47 39 24 26 35 43 54 54 44 38 35 32 31 31 29 26 29 34 34 36 42 45 47 51 53 53 53 48 40 32 26 22 22 24 26 25 23 21 20 20 21 24 26 28 29 31 33 34
2 0 2 4 6 5 4 4 3 2 2 2 2 2 3 4 2 1 1 2 1 4 5 7 9 8 6 11 16 18 22 23 25 30 31 26 27 39 44 32 24 30 40 49 53 45 37 37 35 29 28 30 33 35 36 32 30 37 44 46 49 51 52 50 45 37 29 24 23 24 25 27 25 23 22 22 24 26 29 31 32 34 35 36 37 35
1 0 2 4 4 6 6 6 6 6 6 2 2 3 4 4 3 1 0 1 2 4 5 6 9 14 16 16 16 16 16 19 23 30 30 25 30 40 39 28 26 35 45 48 43 37 35 34 29 25 28 34 40 41 35 29 33 43 47 48 49 48 46 42 33 26 23 24 26 26 26 25 24 23 23 26 29 32 33 35 37 37 35 32 30 27
2 1 2 5 4 5 7 9 10 7 7 7 4 4 4 2 3 2 1 2 5 8 6 6 11 19 21 19 17 17 16 15 20 29 28 24 33 41 35 29 32 41 45 41 37 36 33 28 26 29 36 39 36 34 33 35 39 42 44 47 46 41 38 32 25 22 25 27 27 25 24 25 25 24 24 27 32 35 38 39 37 33 28 24 23 22
3 1 2 5 7 9 9 12 13 9 7 9 5 1 3 4 4 3 2 4 6 8 9 12 16 20 21 18 16 17 16 14 20 28 28 28 38 41 35 35 42 46 42 38 36 34 28 25 29 38 45 40 31 32 38 43 45 44 43 42 39 34 31 26 24 27 29 28 25 24 24 24 24 25 28 34 38 39 38 34 28 24 22 21 21 20
4 2 3 4 6 10 10 13 13 8 6 4 1 1 1 4 3 1 5 8 5 5 11 18 20 19 18 16 15 18 19 19 24 29 30 37 43 39 35 40 45 43 39 39 35 29 27 28 30 38 43 33 29 39 44 44 47 48 43 38 33 29 26 25 28 30 28 26 24 24 25 26 30 34 37 37 35 32 28 25 23 23 23 22 21 19
2 2 2 2 7 10 11 12 9 5 5 2 2 2 2 3 6 6 7 8 7 10 14 17 19 17 13 11 16 22 25 28 31 32 34 40 39 33 36 42 41 38 39 38 32 28 33 34 29 33 39 33 34 44 48 48 49 46 39 34 30 27 25 27 30 28 25 24 24 26 31 36 38 37 34 31 28 26 25 26 26 26 24 22 21 19
1 2 1 2 5 9 8 7 5 4 5 4 3 3 4 4 6 5 5 6 7 11 14 13 14 13 9 12 21 26 29 30 31 33 36 36 31 31 37 39 37 38 38 35 30 31 38 40 31 29 35 36 40 46 49 51 47 39 35 31 28 27 26 26 25 24 25 27 30 36 39 39 36 33 30 28 27 26 27 27 27 26 24 23 20 18
2 2 2 5 4 7 3 4 8 3 2 3 3 4 4 4 4 4 5 6 10 14 15 11 9 7 9 18 24 26 30 29 26 30 35 32 28 31 37 36 36 38 34 31 35 39 42 41 33 28 33 39 43 48 51 49 40 35 33 29 27 27 26 24 24 26 31 37 41 41 38 35 33 31 30 28 27 28 28 28 27 25 23 21 19 18
2 1 2 3 3 6 1 8 13 4 6 1 4 4 4 4 6 6 7 9 8 6 6 6 6 7 15 21 20 21 25 24 23 29 31 27 28 33 34 34 35 34 30 33 44 47 42 35 27 27 35 41 46 51 50 42 34 32 30 27 26 25 24 25 29 35 41 42 41 39 37 35 33 30 29 28 28 29 29 28 26 24 22 21 20 19
2 2 0 1 2 5 7 10 9 3 4 3 3 7 4 3 6 9 13 13 5 3 2 6 8 12 18 19 17 18 20 21 27 31 25 22 28 33 34 35 35 31 32 41 48 45 38 30 25 29 38 43 48 51 46 37 32 31 29 26 25 24 25 31 37 42 42 38 36 37 37 35 32 30 30 30 30 29 28 27 25 23 22 21 20 19
2 2 1 2 2 4 7 9 7 4 2 2 5 5 1 4 6 10 12 8 4 2 5 10 12 17 20 21 22 23 23 28 33 29 20 21 30 35 36 36 34 31 40 51 47 37 34 30 27 34 41 45 48 47 40 34 31 30 27 24 24 28 33 39 43 42 37 34 36 38 36 33 32 31 31 30 30 29 28 26 24 23 22 21 20 19
2 2 1 1 1 3 5 6 4 4 2 2 3 3 4 4 6 9 12 4 5 1 8 11 15 20 24 27 27 24 28 35 33 23 21 28 35 38 37 35 31 35 47 51 38 31 33 31 30 37 43 45 46 41 35 32 30 28 26 25 28 35 40 43 42 37 33 35 38 37 35 33 32 31 31 30 29 28 27 25 24 23 22 21 19 19
4 3 1 2 1 1 2 2 3 4 3 1 3 3 2 4 5 7 10 6 3 1 8 12 14 20 26 29 29 29 34 33 23 19 28 36 39 40 38 33 34 43 50 41 29 30 33 31 33 39 42 43 42 35 32 31 27 26 27 31 37 41 43 41 37 33 35 38 38 36 34 32 31 31 30 29 28 28 26 24 22 22 22 21 21 21
3 1 1 1 1 2 2 3 3 5 4 3 5 5 4 8 7 5 4 5 3 1 12 14 13 20 24 25 29 34 32 22 12 16 31 40 42 42 39 37 41 48 45 32 29 34 32 30 35 39 39 41 38 33 31 28 25 28 33 38 41 42 41 37 33 34 38 39 37 35 32 30 30 30 29 28 27 27 25 22 21 22 22 22 23 24
5 3 4 3 2 2 2 2 3 4 4 4 6 5 7 12 8 4 2 4 4 5 18 19 17 22 23 21 26 28 21 12 9 19 33 41 40 38 38 41 46 48 40 29 31 35 30 31 39 40 38 39 35 31 29 25 27 33 37 40 42 40 37 34 34 37 39 37 35 32 29 28 28 27 27 26 25 24 23 21 21 21 22 23 24 25
5 4 3 2 2 1 2 1 3 5 5 4 6 5 11 13 7 2 6 6 5 15 24 21 20 22 21 22 23 17 9 8 14 25 37 42 38 35 38 41 45 45 36 29 33 34 29 33 40 39 39 39 33 29 27 26 31 36 38 40 41 37 33 33 35 37 37 34 32 29 26 26 25 24 24 24 23 22 21 20 20 21 22 23 24 24
2 2 1 1 2 3 4 3 4 5 5 3 4 8 13 11 3 3 8 11 15 24 26 22 21 21 19 22 20 14 14 20 25 32 40 40 36 37 40 42 42 40 33 29 33 32 28 32 36 36 38 38 31 26 26 29 33 36 37 39 38 33 31 33 35 36 34 32 30 26 24 23 22 22 22 21 21 20 18 18 19 20 21 23 23 23
1 1 1 0 2 2 3 4 4 5 4 3 6 8 8 7 4 4 10 16 20 25 24 22 22 20 20 22 21 21 27 31 32 34 37 36 35 38 41 42 41 39 35 32 34 32 29 32 34 35 38 37 29 24 27 31 33 35 37 37 34 31 31 34 35 35 32 30 27 24 22 21 20 20 20 19 19 18 17 16 15 17 19 21 22 22
3 1 2 3 2 0 1 1 4 5 4 1 6 4 3 2 6 10 14 18 20 21 21 22 22 20 22 25 26 28 31 33 34 35 35 35 36 39 41 40 38 38 37 35 35 32 30 33 34 35 38 35 25 25 31 31 31 35 37 34 30 30 32 34 35 33 30 28 25 22 21 20 19 19 18 18 17 17 16 14 13 14 16 18 20 21
3 4 2 3 2 1 2 2 2 3 3 5 8 6 3 6 11 12 14 19 21 20 20 21 22 22 24 26 28 30 32 33 35 35 34 36 38 39 39 39 37 37 36 35 35 32 31 35 36 36 38 33 24 28 34 30 28 35 36 31 30 31 33 34 33 31 29 27 24 21 20 19 18 18 18 18 17 15 15 14 12 12 13 15 19 22
6 7 3 3 4 4 4 8 11 14 17 17 15 12 11 13 13 13 16 21 23 21 19 21 24 25 25 27 29 30 31 33 34 34 34 36 38 37 37 37 37 36 34 34 33 31 32 35 36 37 38 32 26 31 34 28 28 35 34 30 30 31 32 33 32 30 28 26 23 21 20 18 18 18 17 18 16 14 14 14 13 13 12 13 17 21
8 8 4 2 3 6 11 19 22 23 23 21 17 16 16 14 13 15 19 23 22 21 21 22 25 26 26 28 29 31 33 32 32 33 33 35 36 36 35 36 36 36 34 34 32 30 33 36 36 36 37 32 28 33 33 28 30 34 31 28 29 30 31 32 30 29 28 25 22 21 20 19 18 18 18 17 15 12 13 13 14 13 12 12 15 19
5 8 6 2 1 3 6 10 11 12 16 17 16 16 15 13 13 17 21 22 20 21 22 22 23 25 27 27 29 31 32 31 31 32 34 35 35 35 35 35 36 35 34 34 31 30 33 36 36 36 35 31 30 33 32 29 31 32 28 27 28 29 30 30 29 28 27 24 22 21 20 20 20 20 19 18 15 12 10 10 11 13 13 14 14 18
3 8 5 3 4 4 7 10 13 18 23 21 18 16 14 13 16 19 20 19 19 20 22 21 22 25 27 28 28 29 30 30 30 32 34 34 34 34 35 35 35 35 35 33 31 31 33 35 35 35 33 31 31 32 31 30 31 30 27 26 27 28 29 28 28 27 25 23 22 21 20 21 22 22 21 19 17 14 11 10 10 11 13 15 14 16
6 6 4 3 4 7 11 15 17 19 17 14 12 13 13 15 17 19 17 17 18 21 21 21 22 25 26 27 27 26 28 30 30 31 33 34 33 34 34 34 34 34 34 33 31 31 32 33 34 34 32 31 31 31 30 30 30 28 26 26 26 26 28 28 27 26 24 22 22 21 21 21 21 22 22 21 18 14 10 9 11 11 12 11 9 11
7 4 3 2 2 6 7 8 6 5 8 11 12 12 14 16 18 17 16 17 19 21 20 21 23 25 25 26 25 25 28 30 30 30 32 32 32 33 33 33 34 34 33 32 31 31 32 32 32 33 32 30 30 30 29 30 29 27 25 25 25 25 26 26 26 25 24 22 22 22 22 22 21 21 22 22 20 16 9 5 4 6 10 10 6 5
14 11 8 7 6 10 12 11 9 8 11 15 15 14 16 18 18 16 16 17 19 19 20 21 24 25 25 25 25 26 27 29 29 30 30 30 31 31 31 32 33 34 34 33 33 33 33 32 32 32 31 30 29 29 28 29 28 26 25 24 23 23 24 24 25 25 23 22 22 22 22 22 22 21 21 21 21 20 17 11 3 2 3 8 8 4
Wind_Direction
29 48 38 337 287 286 270 202 174 178 177 238 272 263 268 277 286 280 274 283 35 316 261 234 268 283 301 306 348 8 360 339 303 229 189 186 182 177 172 161 155 148 138 130 115 92 48 16 3 354 351 349 347 344 343 342 339 336 333 329 327 326 329 332 334 336 337 337 337 335 334 332 330 329 327 326 324 323 321 318 314 311 307 302 293 285
38 60 8 285 240 262 291 176 138 116 165 260 272 292 295 265 281 281 274 300 34 348 287 297 305 301 309 319 6 11 10 13 350 290 190 176 172 170 164 155 148 138 125 115 92 52 16 1 352 347 344 343 342 340 340 338 334 330 325 322 323 326 331 335 337 337 337 336 334 332 331 329 326 325 324 323 323 322 320 317 314 310 304 294 284 278
41 53 320 307 179 94 41 82 110 85 203 264 283 314 313 300 302 291 256 274 48 332 308 328 320 306 324 14 34 20 17 14 7 359 192 171 160 156 153 147 137 126 112 93 60 18 358 349 345 342 340 339 339 338 336 333 328 322 318 318 320 326 331 334 335 334 334 333 331 329 326 325 323 322 323 322 322 321 319 317 313 309 303 292 283 281
38 330 310 359 106 102 22 25 56 25 357 287 315 323 298 317 338 311 286 296 318 298 298 319 314 304 1 71 54 26 29 34 37 56 95 139 142 136 136 132 120 111 89 54 17 356 347 341 339 338 336 336 336 335 332 327 322 314 311 314 318 324 327 330 332 331 330 328 327 325 323 322 322 321 322 322 322 322 319 316 314 312 308 300 292 288
3 282 320 45 64 67 340 353 44 20 345 305 289 259 282 313 309 276 294 311 316 312 332 337 325 314 41 49 20 18 32 39 48 64 74 90 110 114 113 107 94 73 30 5 352 345 341 337 335 334 334 334 332 331 328 322 316 307 305 310 315 320 325 328 329 327 326 325 324 324 323 322 322 322 323 322 321 320 318 316 315 313 309 303 296 290
343 288 345 21 6 35 30 2 30 19 347 318 283 226 265 304 295 284 300 322 329 329 35 13 349 299 321 45 22 2 30 40 47 58 65 77 91 96 92 82 57 20 358 348 341 338 335 335 336 333 331 331 329 328 324 318 310 300 298 305 313 319 324 326 326 323 321 320 321 321 320 320 321 321 321 320 319 318 316 315 313 310 305 299 292 288
348 331 45 49 354 21 44 19 329 36 4 327 273 209 277 293 292 295 306 327 324 292 321 32 74 264 307 15 10 18 53 51 48 53 59 69 78 82 71 46 11 357 350 341 335 333 331 332 333 332 331 328 326 326 321 314 306 295 292 302 313 319 322 323 320 316 314 314 316 317 316 316 317 318 318 319 319 317 316 315 312 308 304 298 292 289
320 351 12 34 27 35 35 359 284 102 5 303 248 311 310 298 293 297 304 295 256 297 326 17 140 249 292 330 317 49 68 59 51 49 53 64 73 72 43 8 350 344 341 336 331 331 331 330 329 329 328 324 322 322 317 311 303 291 289 303 313 316 318 318 312 307 307 310 312 313 312 313 316 317 317 319 318 316 317 316 313 309 306 302 297 291
305 1 359 12 32 35 11 302 261 157 337 275 280 310 292 283 286 292 298 279 271 352 334 332 31 298 286 297 315 27 77 69 59 48 45 59 68 47 12 352 343 338 335 334 331 330 329 327 324 322 322 319 318 318 314 311 302 289 289 303 308 312 315 314 307 302 304 308 310 311 312 314 316 317 317 317 315 314 315 314 312 308 304 301 296 291
320 340 320 64 67 14 281 270 264 172 238 286 301 305 280 268 284 305 301 286 317 55 300 299 19 345 305 320 14 1 55 71 69 71 49 43 36 11 353 345 343 339 335 333 331 329 326 324 323 322 321 319 318 317 314 310 300 286 288 300 305 311 314 312 307 302 303 307 309 311 313 314 315 315 315 314 313 312 312 312 310 306 301 297 293 290
337 253 244 84 106 279 270 285 287 176 254 311 318 317 309 302 92 63 354 346 7 11 266 262 100 21 308 313 67 343 345 97 98 71 28 12 3 351 345 344 342 339 335 333 331 329 328 326 326 325 324 322 321 318 316 313 302 283 284 300 307 313 315 312 305 300 303 307 309 311 313 314 314 315 315 314 312 311 312 312 310 306 301 296 292 290
357 78 343 12 80 329 290 291 312 151 343 342 338 337 344 349 29 16 4 41 13 306 263 229 216 308 298 302 70 14 20 82 95 63 23 1 352 347 343 341 339 337 334 332 331 330 331 330 330 329 327 324 323 321 319 316 300 277 291 312 317 318 317 315 308 302 303 307 309 311 312 313 313 314 314 312 311 311 312 312 310 305 300 296 293 291
1 119 323 320 176 350 338 303 334 21 9 6 5 7 10 356 350 345 340 9 304 267 269 299 302 302 279 264 89 67 62 88 91 65 29 357 349 346 342 339 337 337 335 334 334 333 333 332 331 330 328 327 327 323 321 317 300 292 314 323 322 320 320 317 310 302 302 305 308 309 310 311 312 312 312 310 310 311 312 311 307 302 297 294 293 292
338 301 340 19 291 354 28 17 349 342 358 7 13 29 30 2 339 319 315 328 304 289 310 321 303 287 300 333 113 123 126 109 72 40 12 356 350 343 339 338 337 338 338 337 335 334 333 332 331 331 332 332 330 325 322 316 305 312 322 324 322 322 322 318 309 301 300 303 306 307 307 308 310 310 309 310 310 310 310 308 303 299 296 293 292 291
2 323 337 43 327 336 37 46 329 261 344 337 164 110 63 29 303 283 292 311 310 302 312 334 332 254 314 338 136 154 154 109 39 10 359 354 349 343 341 341 339 339 339 338 335 334 334 334 336 338 338 336 332 326 323 317 314 319 322 323 321 320 321 318 308 299 300 304 305 305 305 306 308 309 310 310 310 309 308 306 301 298 295 292 290 289
23 277 270 341 318 327 44 16 256 106 34 261 146 90 10 317 194 232 242 255 292 298 301 332 152 233 282 76 120 159 176 31 6 356 354 351 347 346 344 342 340 339 339 338 337 337 339 340 342 342 339 336 333 329 323 319 319 321 322 321 319 319 321 318 308 301 304 306 305 305 306 308 310 312 312 311 309 309 307 304 299 296 295 293 291 291
10 275 287 346 350 91 59 346 327 52 351 287 47 12 305 251 144 241 281 270 305 308 293 305 314 301 93 91 69 199 323 357 356 350 350 346 344 344 342 340 340 339 338 339 340 341 343 344 343 341 337 334 331 329 324 319 316 318 320 321 321 320 320 316 307 304 306 306 308 309 311 314 316 315 313 310 309 309 306 300 296 294 295 294 293 292
299 282 301 356 335 327 29 34 64 51 35 49 7 321 294 93 110 83 316 310 323 308 290 322 326 323 342 331 278 329 351 349 343 343 345 342 342 342 340 340 340 338 340 341 342 343 345 344 340 337 334 331 329 327 323 317 315 320 324 323 322 321 318 311 304 306 309 313 317 318 319 320 318 315 312 310 309 306 301 297 297 296 295 295 294 293
151 294 305 349 264 295 360 69 58 10 37 77 18 315 15 357 352 29 332 300 325 316 303 315 321 318 311 306 317 341 345 341 335 340 343 341 343 342 339 340 340 342 344 344 345 346 344 340 336 333 331 329 327 325 324 323 323 327 326 324 322 316 309 304 306 313 317 320 323 323 323 320 317 314 312 310 308 303 299 299 300 298 297 297 296 296
133 324 298 278 275 307 1 64 352 325 3 44 50 14 22 286 249 310 220 241 339 319 305 311 319 325 246 277 327 345 343 340 339 342 341 342 344 341 340 342 343 343 345 346 347 344 340 336 333 332 330 329 330 331 332 331 329 328 327 325 320 313 317 322 323 325 324 324 325 324 321 318 315 314 314 312 307 303 302 302 302 302 300 299 298 298
30 120 265 281 309 340 358 41 144 175 346 7 22 4 353 338 211 247 246 121 98 309 308 310 311 317 340 249 315 351 345 344 345 345 343 342 341 342 345 344 340 341 345 346 344 340 337 336 333 332 332 334 335 334 333 331 330 331 330 329 330 333 336 336 333 331 329 326 324 322 320 318 317 318 317 313 308 306 305 304 304 305 304 304 304 303
346 149 244 296 332 338 282 231 181 183 139 63 57 28 13 7 12 351 324 344 125 271 293 291 294 305 339 121 170 276 338 350 351 347 343 340 339 344 346 341 336 340 344 342 341 339 337 336 335 336 338 340 338 336 336 340 344 344 341 339 339 338 338 337 334 331 328 325 323 322 322 322 321 320 319 315 312 310 308 306 306 306 305 305 304 301
165 113 237 275 271 270 282 309 129 153 112 98 87 87 103 86 75 71 304 305 321 285 270 256 283 299 316 170 179 348 348 352 350 345 339 336 339 346 344 338 336 342 342 340 340 339 338 339 340 341 344 346 348 350 352 352 349 343 340 340 338 335 334 333 331 328 327 326 325 326 325 324 323 322 320 318 315 311 306 303 301 300 299 298 297 296
108 89 342 280 268 274 314 353 18 109 100 82 49 65 104 93 113 171 210 319 325 287 301 293 287 291 151 297 329 348 349 348 345 340 337 335 341 346 341 336 338 343 341 340 340 340 340 341 341 344 348 353 358 358 350 347 346 343 340 338 335 332 330 329 328 329 329 329 328 326 325 325 324 324 322 318 312 305 302 303 302 301 299 297 296 295
339 349 8 342 336 341 343 338 320 310 11 50 75 70 83 79 44 232 157 28 272 250 308 310 290 294 317 328 338 347 346 342 339 338 337 337 343 344 338 334 338 342 341 341 340 340 341 340 340 347 356 355 352 349 345 344 343 339 336 333 330 329 328 328 330 332 332 331 330 326 326 327 326 326 323 314 307 306 305 305 305 304 302 300 298 297
338 171 77 69 5 326 314 309 302 309 329 352 95 50 35 70 71 52 120 327 281 281 294 278 279 299 313 327 339 345 343 337 336 338 339 340 341 340 336 334 338 341 341 341 340 339 340 342 346 355 358 350 345 344 345 344 338 334 331 331 330 329 331 333 334 334 332 331 329 327 327 329 328 326 320 311 309 309 308 307 308 308 306 305 304 303
97 118 154 152 185 244 255 267 282 306 315 303 331 13 353 5 72 62 31 297 295 297 283 264 289 305 315 329 338 340 340 337 335 337 337 338 339 337 336 338 339 341 342 341 340 339 340 345 350 349 345 342 343 344 343 339 336 334 332 332 333 333 336 341 338 332 331 330 329 329 329 329 329 327 320 313 312 310 309 311 312 313 314 313 310 306
93 333 249 182 211 239 248 266 282 298 290 284 301 344 303 332 30 44 314 268 289 309 306 307 313 312 315 328 337 336 338 337 333 334 335 338 338 337 338 341 340 340 341 341 340 341 343 345 343 338 337 338 341 340 338 336 337 336 335 333 334 339 345 345 335 328 329 332 331 331 332 331 327 321 314 311 311 311 313 317 321 324 324 321 315 310
109 255 243 198 246 260 261 268 274 277 272 267 238 178 297 333 338 248 247 260 279 297 292 302 314 313 312 325 335 334 334 331 328 332 336 337 336 337 341 342 340 339 340 340 340 344 347 342 334 335 338 339 338 337 338 339 338 337 336 336 340 346 347 339 331 330 332 335 335 334 332 326 318 314 313 314 316 320 325 332 335 333 330 326 322 316
109 246 236 225 281 277 265 269 269 252 246 213 163 246 267 267 262 251 250 259 250 249 271 296 309 308 310 326 327 325 329 329 328 334 338 335 334 338 343 341 338 338 339 339 341 344 344 339 331 334 339 338 336 338 340 339 338 337 339 342 346 346 341 336 335 337 339 337 334 328 322 319 319 322 324 328 332 336 337 337 335 333 332 330 327 321
43 301 305 89 313 292 269 275 280 236 233 210 188 261 272 265 268 258 258 270 267 273 288 303 307 300 308 323 320 323 330 331 332 336 336 333 335 342 342 339 337 337 337 340 342 341 339 337 333 333 337 338 338 339 340 339 338 340 342 345 345 341 338 339 340 341 338 331 323 321 322 327 331 334 334 336 338 337 334 333 333 333 333 332 328 325
56 335 352 62 345 286 249 320 316 323 107 160 211 270 289 295 289 254 251 284 300 305 309 313 307 295 313 324 324 328 332 331 333 334 331 331 339 343 340 337 337 336 337 338 338 338 338 337 335 334 335 336 337 337 339 340 341 343 345 343 340 339 339 342 341 336 330 325 324 328 335 339 338 335 335 335 336 334 334 335 337 337 337 334 332 330
98 57 335 53 324 273 300 331 312 347 75 74 241 226 221 258 289 287 294 301 303 314 314 303 292 300 321 328 328 330 330 330 333 333 329 332 342 342 338 337 337 337 338 337 336 338 339 338 336 334 333 334 336 336 339 342 345 347 347 341 337 339 340 338 335 331 329 329 331 337 342 341 336 335 336 337 336 337 339 340 341 341 340 338 336 334
99 91 167 125 276 284 318 323 312 19 39 313 198 165 185 291 305 299 304 302 285 148 233 284 298 318 328 331 325 324 327 328 330 329 329 338 344 342 340 340 339 336 337 338 338 339 341 340 335 332 333 335 335 336 339 344 348 347 345 340 337 336 332 330 329 331 333 335 337 341 343 341 339 339 339 340 340 341 343 343 344 346 345 343 343 342
100 99 138 144 199 281 322 345 353 6 338 229 174 166 289 310 260 261 280 276 200 164 314 317 323 326 327 325 323 323 325 327 327 328 334 345 347 346 344 341 339 334 333 335 337 338 341 340 332 331 334 333 333 337 343 346 346 344 341 338 335 331 328 329 331 335 337 338 340 344 345 343 342 341 342 344 344 344 345 347 348 351 350 349 351 351
145 138 137 152 202 299 354 21 358 301 260 164 212 267 319 317 289 303 314 302 157 121 336 333 326 324 325 325 325 327 327 326 325 329 344 347 346 347 344 340 336 332 332 335 336 337 338 334 326 328 331 332 335 341 346 345 342 342 339 331 328 329 329 331 336 339 339 340 343 346 346 344 344 344 344 346 346 347 349 351 354 356 355 356 0 1
150 128 48 340 336 356 332 261 245 288 335 10 271 267 261 278 299 322 319 305 176 123 344 335 322 324 328 327 329 332 331 329 325 334 346 345 342 343 341 336 330 329 333 335 332 333 334 328 324 327 330 335 341 344 346 344 341 339 335 330 329 330 332 336 341 341 340 343 346 346 346 347 346 345 346 347 348 350 352 355 359 1 1 3 7 10
102 116 124 358 345 70 14 310 311 330 324 258 239 238 242 271 263 219 262 288 198 338 344 338 324 328 331 331 333 335 336 334 326 334 341 340 338 338 336 331 328 330 336 337 328 331 333 325 325 330 334 340 344 345 347 346 337 331 330 330 332 334 338 342 343 341 342 345 346 345 346 348 347 346 347 347 349 352 354 358 3 7 8 8 11 17
44 36 105 89 357 64 72 327 288 280 275 226 220 249 303 309 289 204 230 268 209 326 344 344 334 331 333 333 336 338 339 338 322 326 332 333 333 334 332 330 329 334 340 335 327 332 331 325 330 337 341 344 344 346 349 343 331 330 331 333 336 340 343 344 342 341 344 345 345 346 348 349 348 348 348 348 350 354 356 1 8 11 13 15 19 24
28 12 54 50 306 188 150 227 242 247 256 222 210 271 319 315 299 340 333 312 330 343 343 342 334 330 331 332 336 339 336 316 309 315 323 328 330 330 330 330 331 336 340 332 329 334 331 328 335 340 342 344 345 346 346 335 330 333 335 337 342 344 344 342 340 342 344 345 346 348 349 350 350 350 350 349 351 356 0 4 8 12 17 24 28 29
3 342 11 169 224 199 185 225 265 264 251 236 267 312 326 320 319 9 323 312 331 335 333 333 330 326 327 330 329 322 308 307 308 312 320 328 330 328 330 333 335 339 339 331 331 337 333 331 336 338 339 344 346 346 343 334 332 336 338 339 343 344 342 339 340 343 346 346 348 350 351 353 353 351 352 351 351 357 4 6 7 12 19 28 32 32
303 311 343 185 210 213 187 202 279 282 228 224 294 317 347 353 336 308 298 304 318 323 323 328 326 322 324 325 319 312 312 315 317 319 324 330 328 326 331 336 337 339 340 335 335 339 335 333 337 338 339 345 348 342 338 336 335 337 339 341 344 344 340 339 341 345 347 348 351 353 354 356 355 353 353 353 355 359 2 5 9 13 19 26 32 32
185 184 295 263 205 356 338 299 321 299 219 231 323 330 68 23 294 289 300 307 313 317 320 322 321 321 323 321 318 318 320 322 324 325 327 329 328 330 335 338 338 338 339 338 338 339 336 335 338 338 340 346 346 335 336 339 336 336 341 344 345 343 340 341 344 346 348 351 354 356 357 357 358 357 356 355 358 359 359 3 8 12 18 24 27 28
193 171 247 260 195 85 342 245 244 262 268 338 334 300 259 287 291 297 308 311 314 320 320 317 317 320 321 320 320 323 324 325 326 328 329 329 330 334 338 340 340 339 339 339 339 339 337 337 339 339 342 347 343 334 339 344 337 337 343 345 344 344 342 343 345 347 350 354 356 357 359 359 0 2 1 359 358 356 357 2 5 8 16 22 25 26
208 188 191 234 215 206 229 239 256 280 295 305 302 288 289 296 297 304 312 312 314 318 317 315 316 318 321 324 324 324 325 326 327 328 328 327 331 336 339 340 342 340 338 339 340 338 337 338 340 340 343 347 341 336 342 346 340 340 344 344 344 345 344 343 345 349 353 356 358 359 359 360 3 8 7 2 358 354 355 358 2 6 12 20 26 26
212 187 160 170 245 272 270 260 261 271 280 285 287 291 297 294 291 303 311 311 312 315 316 316 316 319 324 327 327 326 326 327 327 327 327 328 333 337 339 341 344 343 339 340 341 338 337 339 341 342 344 346 341 339 343 345 342 343 343 342 345 347 344 343 346 350 354 357 359 1 0 0 5 10 10 6 2 357 356 357 0 5 11 20 27 25
215 185 185 204 255 310 283 248 234 251 273 283 288 287 284 280 283 298 307 308 310 315 317 317 318 322 326 328 327 326 325 327 328 328 328 332 336 338 340 342 345 344 341 340 341 338 337 340 343 344 345 345 341 341 343 344 344 344 342 342 346 347 345 345 347 350 354 358 0 2 3 4 6 8 9 9 6 359 355 356 359 4 12 18 21 22
167 172 199 224 199 221 260 259 261 275 283 286 285 278 270 269 282 296 305 306 308 314 318 320 322 324 326 327 327 325 325 329 331 330 331 334 337 339 342 343 344 344 343 341 341 339 339 342 345 345 345 344 342 341 343 344 346 346 343 344 348 348 346 346 348 351 355 359 1 2 5 7 7 6 7 9 9 5 357 351 354 5 14 16 17 19
147 163 196 206 215 252 271 273 277 284 284 271 265 268 269 275 289 301 305 304 307 314 319 323 325 325 326 327 327 326 326 330 333 333 334 337 338 340 342 343 343 344 343 342 341 341 343 345 346 346 346 345 344 343 343 346 348 346 344 347 350 349 347 346 348 351 356 0 3 4 5 7 7 6 6 8 11 15 11 356 353 1 7 8 15 24
154 178 183 158 257 272 261 250 254 280 283 273 273 277 278 285 297 302 302 305 312 316 320 324 325 326 327 328 328 328 328 330 334 335 337 340 342 342 342 343 344 346 346 343 342 343 346 348 348 347 347 347 346 344 345 348 349 346 346 350 351 350 349 347 347 351 356 1 5 5 4 4 5 6 8 7 7 14 25 24 353 351 359 356 352 18
200 210 190 178 227 256 261 262 257 257 273 285 290 286 283 291 298 299 301 308 314 316 320 323 324 326 329 330 330 329 329 331 334 335 337 342 344 343 343 344 345 347 348 346 343 344 347 349 349 349 349 348 347 346 348 351 349 346 348 352 351 351 350 348 348 351 355 360 4 5 3 2 1 4 7 7 6 7 14 22 35 220 324 341 324 309